Regional Weather Roundup
Issued by NWS

Home | Current Version | Previous Version | Graphics & Text | Print | Product List | Glossary On
Versions: 1 2 3 4 5 6 7 8 9 10 11 12 13 14 15 16 17 18 19 20 21 22 23 24 25 26 27 28 29 30 31 32 33 34 35 36 37 38 39 40 41 42 43 44 45 46 47 48 49 50
881
ASUS43 KFSD 280810
RWRSD

WEATHER ROUNDUP FOR SOUTH DAKOTA
NATIONAL WEATHER SERVICE SIOUX FALLS SD
300 AM CDT FRI APR 28 2017

NOTE: "FAIR" INDICATES FEW OR NO CLOUDS BELOW 12,000 FEET WITH NO
SIGNIFICANT WEATHER AND/OR OBSTRUCTIONS TO VISIBILITY.


SDZ001>005-009-010-012>017-280900-
NORTHWEST AND NORTH CENTRAL SOUTH DAKOTA

CITY           SKY/WX    TMP DP  RH WIND       PRES   REMARKS
BUFFALO          N/A     33  26  75 NE8       29.74R WCI  26
FAITH            N/A     30  27  88 NE8       29.80S WCI  22
MOBRIDGE       CLEAR     35  25  66 E15       29.83R WCI  25
$$

SDZ012>016-024>037-041>051-057-063-072>074-280900-
SOUTHWEST AND SOUTH CENTRAL SOUTH DAKOTA

CITY           SKY/WX    TMP DP  RH WIND       PRES   REMARKS
RAPID CTY ARPT CLOUDY    38  31  76 NE3       29.75F
PIERRE         PTCLDY    30  25  81 NE8       29.81R WCI  22
CUSTER         LGT SNOW  29  26  89 NE14      29.67F VSB 3/4 WCI  18
ELLSWORTH AFB  CLOUDY    39  31  74 NE6       29.75S
PHILIP         CLOUDY    38  32  79 E10       29.78S
PINE RIDGE     LGT RAIN  40  39  97 E13       29.68F
SPEARFISH      CLOUDY    37  30  75 E9        29.75S
WINNER         FAIR      37  30  75 E12       29.78F
$$

SDZ004>011-016>023-039-040-280900-
NORTHEAST SOUTH DAKOTA

CITY           SKY/WX    TMP DP  RH WIND       PRES   REMARKS
ABERDEEN       CLEAR     29  25  85 CALM      29.88R
WATERTOWN      CLEAR     29  25  85 CALM      29.84R
BROOKINGS      CLEAR     28  26  92 NE3       29.85
SISSETON         N/A     32  30  92 N12       29.86R WCI  23
$$

SDZ017-020-022-023-036>040-048>070-280900-
SOUTHEAST SOUTH DAKOTA

CITY           SKY/WX    TMP DP  RH WIND       PRES   REMARKS
SIOUX FALLS    CLEAR     31  27  85 E5        29.84F WCI  26
HURON          CLEAR     25  23  92 CALM      29.85R
CHAMBERLAIN    CLOUDY    33  30  90 E7        29.81S WCI  27
MITCHELL       CLOUDY    31  27  85 CALM      29.84F
YANKTON        CLOUDY    34  27  75 E9        29.83F WCI  26
$$

ABBREVIATIONS USED IN REMARKS
   TC - TEMPERATURE IN CELSIUS
  WCI - WIND CHILL INDEX
   HX - HEAT INDEX
  VSB - VISIBILITY





USA.gov is the U.S. government's official web portal to all federal, state and local government web resources and services.